Tracking 30289 objects as of 29-Apr-2025
HD Live streaming from Space Station
objects crossing your sky now

STARLINK-11645

Track STARLINK-11645 now!
10-day predictions
STARLINK-11645 is classified as:


NORAD ID: 63316
Int'l Code: 2025-057K
Perigee: 362.4 km
Apogee: 365.0 km
Inclination: 43.0 °
Period: 91.7 minutes
Semi major axis: 6734 km
RCS: Unknown
Launch date: March 18, 2025
Source: United States (US)
Launch site: AIR FORCE EASTERN TEST RANGE (AFETR)
Your satellite tracking list
Your tracking list is empty




NASA's NSSDC Master Catalog

Two Line Element Set (TLE):
1 63316U 25057K   25118.94698069  .00000975  00000-0  11105-4 0  9999
2 63316  43.0003   1.9780 0001972 289.1297  70.9357 15.70815736  7701
Source of the keplerian elements: AFSPC